SL-8 DEB, 1479

Orbit data source: Space-Track

SL-8 DEB, 1479 is space debris in LEO originally from a launch on Mon, 15 Mar 1965 UTC launched from the Tyuratam Missile And Space Complex (TTMTR). Debris objects in space refer to the collection of defunct objects orbiting the Earth. Examples of debris include non-operational satellites, rocket bodies, and fragments generated from explosions, collisions, or faulty payload assembly.

Loading next visibility...
Identifier
1479, 1965-020BD
Orbit
LEO
Last TLE update
14 hours ago
Origin
Manufacturer
Unknown
Mission
Spacecraft
Bus & Motor
Unknown
Mass
Unknown
Launch date (UTC)
1965-03-15 (60 years ago)
Launch vehicle
Unknown
Launch site
Tyuratam Missile And Space Complex (TTMTR)
Object type
Payload
Rocket body
Debris
Shape & HBR
Unknown
Radar Cross Section
Small (<0.1 m²)

Expand to show TLE details & history

TLE from 14 hours ago
0 SL-8 DEB
1 01479U 65020BD  25128.73861751  .00000189  00000-0  57689-3 0  9996
2 01479  56.0365 343.5286 0739627 225.0126 128.8519 12.59764876745398
Epoch: 2025-05-08T17:43Z
Definitive object data (Epoch: 2025-05-08T17:43:36.552Z)
Latitude
-0.00003°
Longitude
-149.17852°
Altitude
1,811.098 km
Speed
6.804 km/s
True Right ascension
22h 54m 06s
True Declination
0° 00' 00"
Sunlit
Object was in daylight at TLE epoch
Visualization TLE readout
Latitude
34.53737°
Longitude
1.71439°
Altitude
1,372.271 km
Speed
7.201 km/s
Apparent Right ascension
06h 52m 02s
Apparent Declination
1° 55' 03"
Sunlit
Object is in daylight
Visualization observer readout
Local Sidereal Time
16:00:42
Azimuth
306.125° NW
Elevation
-32.729°
Doppler factor
1
Orbital elements
Apogee altitude
2,000.786 km
Perigee altitude
846.691 km
Semi-major axis
7,801.876 km
Eccentricity
0.0739627
Inclination
56.0365°
RAAN
343.5286°
Arg. of periapsis
225.0126°
True anomaly
135.07764°
Mean anomaly
128.8519°
Eccentric anomaly
132.00111°
Mean motion
3.14952 °/min
BSTAR
0.00057689
Orbital period
114.3 mins
Loading maneuver chart data...
Loading SW <> Apogee altitude chart data...
Loading historical data...
Loading historical data...
Loading historical data...
Loading historical data...
Loading historical data...
Loading historical data...
Loading historical data...

SL-8 DEB Visibility forecast

Observer location: undefined°, undefined°

Span
Click to sort rows by Start time (UTC) header in descending order
Start Az.
Max El. time (UTC)
Max El. Az.
Max El.
End time (UTC)
End Az.
18 mins2025-05-09 14:45:38.020Z169.131° S2025-05-09 14:54:38.020Z111.985° ESE28.044°2025-05-09 15:03:38.020Z60.569° ENE
22 mins2025-05-09 16:42:38.020Z223.755° SW2025-05-09 16:53:38.020Z17.172° NNE44.92°2025-05-09 17:04:38.020Z45.749° ENE
20 mins2025-05-09 18:44:38.020Z270.74° WNW2025-05-09 18:54:38.020Z336.684° NNW34.348°2025-05-09 19:04:38.020Z45.745° ENE
17 mins2025-05-09 20:48:38.020Z305.943° NW2025-05-09 20:57:38.020Z4.533° NNE28.773°2025-05-09 21:05:38.020Z63.277° ENE
17 mins2025-05-09 22:50:38.020Z317.916° NNW2025-05-09 22:59:38.020Z27.921° NE38.231°2025-05-09 23:07:38.020Z105.198° ESE
15 mins2025-05-10 00:51:38.020Z306.927° NW2025-05-10 00:59:38.020Z232.105° WSW39.426°2025-05-10 01:06:38.020Z160.718° S
|